EW2973 Weather Reports


Display with metric or nautical units.
time (UTC)temp
F
wind
direction
speed
MPH
gust
MPH
rain 1hr
in
rain 24hr
in
rain mn
in
humidity
%
barometer
mb
20260831134531 75 192 0.0 4.0 0.00 0.00 0.00 87 1020.7
20260831133027 74 159 0.0 4.0 0.00 0.00 0.00 87 1020.6
20260831131540 74 253 0.0 3.0 0.00 0.00 0.00 88 1020.7
20260831130039 73 202 0.0 2.0 0.00 0.00 0.00 89 1020.8
20260831124526 73 202 0.0 0.0 0.00 0.00 0.00 91 1020.8
20260831123017 72 140 0.0 0.0 0.00 0.00 0.00 91 1020.7
20260831121509 72 144 0.0 0.0 0.00 0.00 0.00 91 1020.6
20260831120038 72 138 0.0 0.0 0.00 0.00 0.00 91 1020.5
20260831114533 72 177 0.0 0.0 0.00 0.00 0.00 91 1020.4
20260831113027 72 193 0.0 0.0 0.00 0.00 0.00 91 1020.3
20260831111521 72 188 0.0 0.0 0.00 0.00 0.00 91 1020.2
20260831110022 72 175 0.0 0.0 0.00 0.00 0.00 91 1020.1
20260831104516 72 175 0.0 0.0 0.00 0.00 0.00 91 1020.0
20260831103014 72 175 0.0 0.0 0.00 0.00 0.00 90 1019.9
20260831101534 72 175 0.0 0.0 0.00 0.00 0.00 90 1019.9
20260831100048 72 174 0.0 0.0 0.00 0.00 0.00 90 1019.9
20260831094530 72 192 0.0 0.0 0.00 0.00 0.00 90 1020.0
20260831093039 72 180 0.0 0.0 0.00 0.00 0.00 90 1019.8
20260831091519 72 186 0.0 0.0 0.00 0.00 0.00 89 1019.8
20260831090016 72 186 0.0 0.0 0.00 0.00 0.00 89 1019.9
20260831084531 72 186 0.0 0.0 0.00 0.00 0.00 88 1019.9
20260831083034 72 186 0.0 0.0 0.00 0.00 0.00 88 1019.8
20260831081536 72 119 0.0 0.0 0.00 0.00 0.00 88 1019.6
20260831080029 72 160 0.0 0.0 0.00 0.00 0.00 88 1019.6
20260831074528 72 188 0.0 2.0 0.00 0.00 0.00 88 1019.6
20260831073023 72 159 0.0 2.0 0.00 0.00 0.00 88 1019.6
20260831071547 72 117 0.0 0.0 0.00 0.00 0.00 89 1019.8
20260831070035 72 150 0.0 0.0 0.00 0.00 0.00 89 1019.9
20260831064533 72 112 0.0 0.0 0.00 0.00 0.00 89 1020.0
20260831063032 72 112 0.0 0.0 0.00 0.00 0.00 88 1020.0
20260831061531 72 112 0.0 0.0 0.00 0.00 0.00 88 1020.0
20260831060029 72 112 0.0 0.0 0.00 0.00 0.00 87 1020.1
20260831054524 73 143 0.0 0.0 0.00 0.00 0.00 87 1020.3
20260831053039 73 143 0.0 0.0 0.00 0.00 0.00 87 1020.3
20260831051537 73 117 0.0 0.0 0.00 0.00 0.00 87 1020.3
20260831050010 73 150 0.0 0.0 0.00 0.00 0.00 87 1020.4
20260831044514 73 150 0.0 0.0 0.00 0.00 0.00 86 1020.4
20260831043014 73 157 0.0 0.0 0.00 0.00 0.00 86 1020.4
20260831041513 73 134 0.0 0.0 0.00 0.00 0.00 87 1020.4
20260831040014 73 111 0.0 0.0 0.00 0.00 0.00 86 1020.4
20260831034515 73 93 0.0 2.0 0.00 0.00 0.00 86 1020.4
20260831033027 73 159 0.0 0.0 0.00 0.00 0.00 86 1020.6
20260831031512 73 159 0.0 0.0 0.00 0.00 0.00 85 1020.6
20260831030014 73 159 0.0 0.0 0.00 0.00 0.00 84 1020.5
20260831024518 73 159 0.0 0.0 0.00 0.00 0.00 85 1020.6
20260831023030 73 155 0.0 0.0 0.00 0.00 0.00 86 1020.8
20260831021532 73 155 0.0 0.0 0.00 0.00 0.00 85 1020.9
20260831020030 74 155 0.0 0.0 0.00 0.00 0.00 84 1020.9
20260831014518 74 155 0.0 0.0 0.00 0.00 0.00 84 1020.8
20260831013013 75 155 0.0 0.0 0.00 0.00 0.00 83 1020.9
20260831011521 75 155 0.0 0.0 0.00 0.00 0.00 81 1020.7
20260831010021 76 155 0.0 0.0 0.00 0.00 0.00 81 1020.6
20260831004521 77 155 0.0 0.0 0.00 0.00 0.00 79 1020.4
20260831003021 77 155 0.0 0.0 0.00 0.00 0.00 77 1020.3
20260831001526 78 155 0.0 0.0 0.00 0.00 0.00 75 1020.1
20260831000021 79 169 0.0 0.0 0.00 0.00 0.00 75 1020.0
20260830234524 79 165 0.0 1.0 0.00 0.00 0.00 74 1019.7
20260830233017 80 163 0.0 2.0 0.00 0.00 0.00 73 1019.6
20260830231524 80 190 0.0 2.0 0.00 0.00 0.00 72 1019.5
20260830230017 80 187 0.0 2.0 0.00 0.00 0.00 71 1019.4
20260830224520 80 119 0.0 0.0 0.00 0.00 0.00 73 1019.3
20260830223019 80 17 0.0 0.0 0.00 0.00 0.00 73 1019.1
20260830221515 81 167 0.0 0.0 0.00 0.00 0.00 71 1019.2
20260830220014 81 167 0.0 0.0 0.00 0.00 0.00 71 1019.0
20260830214519 82 162 0.0 0.0 0.00 0.00 0.00 72 1018.8
20260830213034 82 135 0.0 0.0 0.00 0.00 0.00 70 1018.8
20260830211531 82 171 0.0 3.0 0.00 0.00 0.00 67 1018.6
20260830210046 82 267 0.0 3.0 0.00 0.00 0.00 71 1018.6
20260830204521 82 173 0.0 3.0 0.00 0.00 0.00 70 1018.9
20260830203030 81 101 0.0 3.0 0.00 0.00 0.00 69 1018.9
20260830201524 81 107 0.0 1.0 0.00 0.00 0.00 68 1019.1
20260830200025 82 13 0.0 0.0 0.00 0.00 0.00 67 1020.4
20260830194525 81 13 0.0 2.0 0.00 0.00 0.00 66 1020.9
20260830193024 82 352 1.0 2.0 0.00 0.00 0.00 67 1021.3
20260830191529 82 345 2.0 4.0 0.00 0.00 0.00 65 1021.5
20260830190025 83 5 2.0 4.0 0.00 0.00 0.00 64 1021.6
20260830184523 84 15 2.0 4.0 0.00 0.00 0.00 61 1021.8
20260830183028 84 339 2.0 4.0 0.00 0.00 0.00 61 1022.0
20260830181531 84 10 0.0 5.0 0.00 0.00 0.00 59 1022.0
20260830180029 84 260 0.0 4.0 0.00 0.00 0.00 61 1022.1
20260830174524 84 259 1.0 4.0 0.00 0.00 0.00 63 1022.2
20260830173027 84 336 0.0 3.0 0.00 0.00 0.00 63 1022.3
20260830171526 84 15 1.0 3.0 0.00 0.00 0.00 62 1022.4
20260830170024 82 254 0.0 3.0 0.00 0.00 0.00 65 1022.6
20260830164534 81 213 0.0 0.0 0.00 0.00 0.00 69 1022.6
20260830163028 81 236 0.0 2.0 0.00 0.00 0.00 69 1022.8
20260830161531 81 204 0.0 2.0 0.00 0.00 0.00 67 1022.8
20260830160028 81 241 1.0 5.0 0.00 0.00 0.00 65 1022.6
20260830154537 81 197 2.0 7.0 0.00 0.00 0.00 69 1022.5
20260830153044 80 226 3.0 4.0 0.00 0.00 0.00 68 1022.3
20260830151523 78 195 1.0 3.0 0.00 0.00 0.00 71 1022.1
20260830150020 78 254 2.0 6.0 0.00 0.00 0.00 71 1021.9
20260830144514 77 203 3.0 6.0 0.00 0.00 0.00 71 1021.8
20260830143023 76 243 1.0 5.0 0.00 0.00 0.00 72 1021.5
20260830141510 75 188 1.0 7.0 0.00 0.00 0.00 73 1021.4
20260830140008 75 263 1.0 4.0 0.00 0.00 0.00 75 1021.4